Stündliche Wetter Warren

Heute, 22 Oktober, Donnerstag

Zeit Temperatur Niederschläge Wind Luftdruck Luftfeuchtigkeit
00:00 +12°C° 0 mm 2 m/S 750 mmHg 68%
01:00 +12°C° 1 mm 2 m/S 750 mmHg 72%
02:00 +10°C° 1 mm 2 m/S 750 mmHg 75%
03:00 +10°C° 1 mm 3 m/S 750 mmHg 79%
04:00 +10°C° 0.2 mm 3 m/S 750 mmHg 80%
05:00 +10°C° 0.2 mm 3 m/S 750 mmHg 82%
06:00 +10°C° 0.2 mm 3 m/S 750 mmHg 83%
07:00 +10°C° 0.6 mm 3 m/S 750 mmHg 84%
08:00 +11°C° 0.6 mm 4 m/S 750 mmHg 85%
09:00 +11°C° 0.6 mm 4 m/S 750 mmHg 85%
10:00 +11°C° 0.4 mm 4 m/S 749 mmHg 86%
11:00 +12°C° 0.4 mm 3 m/S 749 mmHg 87%
12:00 +12°C° 0.4 mm 3 m/S 748 mmHg 88%
13:00 +13°C° 0 mm 3 m/S 748 mmHg 89%
14:00 +14°C° 0 mm 3 m/S 747 mmHg 89%
15:00 +16°C° 0 mm 3 m/S 746 mmHg 90%
16:00 +16°C° 0 mm 3 m/S 746 mmHg 92%
17:00 +16°C° 0 mm 3 m/S 746 mmHg 95%
18:00 +14°C° 0 mm 3 m/S 745 mmHg 97%
19:00 +16°C° 0 mm 3 m/S 745 mmHg 96%
20:00 +17°C° 0 mm 4 m/S 745 mmHg 94%
21:00 +17°C° 0 mm 4 m/S 744 mmHg 93%
22:00 +17°C° 0 mm 4 m/S 744 mmHg 92%
23:00 +17°C° 0 mm 5 m/S 744 mmHg 92%

Morgen, 23 Oktober, Freitag

Zeit Temperatur Niederschläge Wind Luftdruck Luftfeuchtigkeit
00:00 +17°C° 0 mm 5 m/S 743 mmHg 91%
01:00 +17°C° 0 mm 5 m/S 743 mmHg 92%
02:00 +17°C° 0 mm 5 m/S 743 mmHg 92%
03:00 +17°C° 0 mm 5 m/S 743 mmHg 92%
04:00 +17°C° 0 mm 5 m/S 742 mmHg 92%
05:00 +17°C° 0 mm 5 m/S 742 mmHg 92%
06:00 +17°C° 0 mm 5 m/S 742 mmHg 91%
07:00 +19°C° 0 mm 6 m/S 741 mmHg 89%
08:00 +19°C° 0 mm 6 m/S 741 mmHg 86%
09:00 +20°C° 0 mm 6 m/S 741 mmHg 84%
10:00 +21°C° 0.1 mm 6 m/S 741 mmHg 82%
11:00 +21°C° 0.1 mm 6 m/S 741 mmHg 81%
12:00 +22°C° 0.1 mm 6 m/S 741 mmHg 79%
13:00 +20°C° 0.5 mm 6 m/S 742 mmHg 79%
14:00 +17°C° 0.5 mm 6 m/S 742 mmHg 79%
15:00 +15°C° 0.5 mm 6 m/S 743 mmHg 79%
16:00 +14°C° 0.1 mm 6 m/S 743 mmHg 77%
17:00 +11°C° 0.1 mm 6 m/S 744 mmHg 75%
18:00 +10°C° 0.1 mm 6 m/S 745 mmHg 74%
19:00 +9°C° 0.1 mm 6 m/S 746 mmHg 72%
20:00 +8°C° 0.1 mm 6 m/S 746 mmHg 71%
21:00 +8°C° 0.1 mm 5 m/S 747 mmHg 69%
22:00 +7°C° 0 mm 5 m/S 747 mmHg 68%
23:00 +7°C° 0 mm 5 m/S 748 mmHg 67%

übermorgen, 24 Oktober, Samstag

Zeit Temperatur Niederschläge Wind Luftdruck Luftfeuchtigkeit
00:00 +6°C° 0 mm 5 m/S 748 mmHg 66%
01:00 +6°C° 0 mm 5 m/S 748 mmHg 66%
02:00 +5°C° 0 mm 5 m/S 748 mmHg 66%
03:00 +5°C° 0 mm 5 m/S 749 mmHg 65%
04:00 +4°C° 0 mm 4 m/S 749 mmHg 67%
05:00 +4°C° 0 mm 4 m/S 749 mmHg 68%
06:00 +4°C° 0 mm 4 m/S 750 mmHg 69%
07:00 +4°C° 0 mm 4 m/S 750 mmHg 65%
08:00 +5°C° 0 mm 3 m/S 750 mmHg 62%
09:00 +7°C° 0 mm 3 m/S 750 mmHg 58%
10:00 +7°C° 0 mm 3 m/S 750 mmHg 53%
11:00 +8°C° 0 mm 3 m/S 750 mmHg 49%
12:00 +9°C° 0 mm 3 m/S 750 mmHg 44%
13:00 +9°C° 0 mm 3 m/S 749 mmHg 44%
14:00 +9°C° 0 mm 3 m/S 749 mmHg 45%
15:00 +9°C° 0 mm 3 m/S 749 mmHg 46%
16:00 +8°C° 0 mm 3 m/S 749 mmHg 49%
17:00 +7°C° 0 mm 3 m/S 749 mmHg 52%
18:00 +7°C° 0 mm 3 m/S 749 mmHg 55%
19:00 +5°C° 0 mm 3 m/S 750 mmHg 57%
20:00 +5°C° 0 mm 3 m/S 750 mmHg 59%
21:00 +6°C° 0 mm 2 m/S 750 mmHg 60%
22:00 +6°C° 0 mm 2 m/S 750 mmHg 61%
23:00 +6°C° 0 mm 2 m/S 750 mmHg 61%

, 25 Oktober, Sonntag

Zeit Temperatur Niederschläge Wind Luftdruck Luftfeuchtigkeit
00:00 +6°C° 0 mm 2 m/S 750 mmHg 61%
01:00 +6°C° 0 mm 2 m/S 750 mmHg 62%
02:00 +5°C° 0 mm 2 m/S 751 mmHg 64%
03:00 +4°C° 0 mm 3 m/S 751 mmHg 65%
04:00 +4°C° 0 mm 3 m/S 751 mmHg 65%
05:00 +4°C° 0 mm 3 m/S 751 mmHg 66%
06:00 +4°C° 0 mm 3 m/S 751 mmHg 66%
07:00 +5°C° 0 mm 3 m/S 751 mmHg 62%
08:00 +5°C° 0 mm 3 m/S 751 mmHg 58%
09:00 +7°C° 0 mm 3 m/S 751 mmHg 54%
10:00 +7°C° 0 mm 3 m/S 751 mmHg 53%
11:00 +8°C° 0 mm 3 m/S 750 mmHg 53%
12:00 +9°C° 0 mm 3 m/S 750 mmHg 52%
13:00 +9°C° 0 mm 3 m/S 750 mmHg 56%
14:00 +9°C° 0 mm 3 m/S 749 mmHg 59%
15:00 +9°C° 0 mm 3 m/S 749 mmHg 63%
16:00 +7°C° 0.1 mm 4 m/S 749 mmHg 63%
17:00 +7°C° 0.1 mm 4 m/S 749 mmHg 62%
18:00 +6°C° 0.1 mm 5 m/S 749 mmHg 62%
19:00 +6°C° 0.4 mm 5 m/S 749 mmHg 67%
20:00 +6°C° 0.4 mm 5 m/S 749 mmHg 71%
21:00 +6°C° 0.4 mm 5 m/S 749 mmHg 76%
22:00 +6°C° 0.6 mm 5 m/S 749 mmHg 78%
23:00 +5°C° 0.6 mm 5 m/S 748 mmHg 81%

25 Oktober, Sonntag

Zeit Temperatur Niederschläge Wind Luftdruck Luftfeuchtigkeit
00:00 +6°C° 0 mm 2 m/S 750 mmHg 61%
01:00 +6°C° 0 mm 2 m/S 750 mmHg 62%
02:00 +5°C° 0 mm 2 m/S 751 mmHg 64%
03:00 +4°C° 0 mm 3 m/S 751 mmHg 65%
04:00 +4°C° 0 mm 3 m/S 751 mmHg 65%
05:00 +4°C° 0 mm 3 m/S 751 mmHg 66%
06:00 +4°C° 0 mm 3 m/S 751 mmHg 66%
07:00 +5°C° 0 mm 3 m/S 751 mmHg 62%
08:00 +5°C° 0 mm 3 m/S 751 mmHg 58%
09:00 +7°C° 0 mm 3 m/S 751 mmHg 54%
10:00 +7°C° 0 mm 3 m/S 751 mmHg 53%
11:00 +8°C° 0 mm 3 m/S 750 mmHg 53%
12:00 +9°C° 0 mm 3 m/S 750 mmHg 52%
13:00 +9°C° 0 mm 3 m/S 750 mmHg 56%
14:00 +9°C° 0 mm 3 m/S 749 mmHg 59%
15:00 +9°C° 0 mm 3 m/S 749 mmHg 63%
16:00 +7°C° 0.1 mm 4 m/S 749 mmHg 63%
17:00 +7°C° 0.1 mm 4 m/S 749 mmHg 62%
18:00 +6°C° 0.1 mm 5 m/S 749 mmHg 62%
19:00 +6°C° 0.4 mm 5 m/S 749 mmHg 67%
20:00 +6°C° 0.4 mm 5 m/S 749 mmHg 71%
21:00 +6°C° 0.4 mm 5 m/S 749 mmHg 76%
22:00 +6°C° 0.6 mm 5 m/S 749 mmHg 78%
23:00 +5°C° 0.6 mm 5 m/S 748 mmHg 81%

26 Oktober, Montag

Zeit Temperatur Niederschläge Wind Luftdruck Luftfeuchtigkeit
00:00 +5°C° 0.6 mm 4 m/S 748 mmHg 83%
01:00 +5°C° 0.1 mm 4 m/S 748 mmHg 84%
02:00 +5°C° 0.1 mm 4 m/S 748 mmHg 84%
03:00 +5°C° 0.1 mm 4 m/S 748 mmHg 84%
04:00 +5°C° 0.8 mm 4 m/S 748 mmHg 85%
05:00 +5°C° 0.8 mm 4 m/S 747 mmHg 87%
06:00 +5°C° 0.8 mm 4 m/S 747 mmHg 88%
07:00 +5°C° 0.8 mm 4 m/S 747 mmHg 87%
08:00 +5°C° 0.8 mm 4 m/S 747 mmHg 87%
09:00 +5°C° 0.8 mm 3 m/S 747 mmHg 87%
10:00 +5°C° 0.3 mm 3 m/S 746 mmHg 87%
11:00 +5°C° 0.3 mm 3 m/S 746 mmHg 87%
12:00 +7°C° 0.3 mm 3 m/S 745 mmHg 86%
13:00 +7°C° 1.1 mm 3 m/S 745 mmHg 87%
14:00 +6°C° 1.1 mm 4 m/S 745 mmHg 89%
15:00 +6°C° 1.1 mm 4 m/S 744 mmHg 90%
16:00 +7°C° 0.5 mm 3 m/S 744 mmHg 90%
17:00 +7°C° 0.5 mm 3 m/S 744 mmHg 90%
18:00 +7°C° 0.5 mm 3 m/S 744 mmHg 90%
19:00 +7°C° 0.7 mm 3 m/S 745 mmHg 90%
20:00 +7°C° 0.7 mm 3 m/S 745 mmHg 90%
21:00 +7°C° 0.7 mm 3 m/S 745 mmHg 90%
22:00 +7°C° 0.3 mm 3 m/S 745 mmHg 89%
23:00 +7°C° 0.3 mm 3 m/S 746 mmHg 88%

27 Oktober, Dienstag

Zeit Temperatur Niederschläge Wind Luftdruck Luftfeuchtigkeit
00:00 +6°C° 0.3 mm 4 m/S 746 mmHg 88%
01:00 +6°C° 0 mm 4 m/S 746 mmHg 87%
02:00 +6°C° 0 mm 4 m/S 747 mmHg 86%
03:00 +6°C° 0 mm 4 m/S 747 mmHg 85%
04:00 +6°C° 0 mm 4 m/S 748 mmHg 85%
05:00 +6°C° 0 mm 4 m/S 748 mmHg 84%
06:00 +5°C° 0 mm 4 m/S 749 mmHg 83%
07:00 +7°C° 0 mm 3 m/S 749 mmHg 80%
08:00 +7°C° 0 mm 3 m/S 749 mmHg 76%
09:00 +7°C° 0 mm 2 m/S 750 mmHg 73%
10:00 +8°C° 0 mm 2 m/S 749 mmHg 71%
11:00 +8°C° 0 mm 2 m/S 749 mmHg 69%
12:00 +9°C° 0 mm 2 m/S 749 mmHg 68%
13:00 +9°C° 0.1 mm 2 m/S 749 mmHg 69%
14:00 +10°C° 0.1 mm 1 m/S 748 mmHg 70%
15:00 +10°C° 0.1 mm 1 m/S 748 mmHg 72%
16:00 +9°C° 0.8 mm 1 m/S 748 mmHg 76%
17:00 +8°C° 0.8 mm 2 m/S 749 mmHg 80%
18:00 +7°C° 0.8 mm 2 m/S 749 mmHg 85%
19:00 +7°C° 0.2 mm 2 m/S 748 mmHg 85%
20:00 +7°C° 0.2 mm 2 m/S 748 mmHg 85%
21:00 +7°C° 0.2 mm 2 m/S 748 mmHg 85%
22:00 +7°C° 0 mm 2 m/S 747 mmHg 84%
23:00 +8°C° 0 mm 1 m/S 747 mmHg 82%
Mehr zeigen

Wir brauchen deine Erlaubnis

Meteoprog und unser Service Anbieter werden persönliche Daten aufbewahren, so wie Cookies, Geräte Bezeichnung oder ähnliche Technologien von deinem Gerät und Prozess, so wie Persönliche Daten Inhalte und Werbungen, genauso wie social Media und den Verkehr zu analysieren.

  • Aufbewahrung und/oder Zugang zu deiner Geräte Informationen.

    Cookies, Geräte Bezeichnung oder andere Informationen, können aufbewahrt oder Zugang zu deinem Gerät erhalten, für den Grund, der oben angegeben wird.

  • Personalisierte Werbung und Inhalte, Messungen, Einblick in das Publikum und Produkt Entwicklung.

    Werbungen und Inhalte können personalisiert werden, basierend auf ein Profil. Mehr Daten können besser personalisierte Werbungen und Inhalte hinzufügen. Werbung und Inhalte können gezeigt und gemessen werden. Einblicke über das Publikum, welche die Werbung gesehen haben und den Inhalt, können abgeleitet werden. So wie Daten können genutzt werden, um es zu verbessern oder die Benutzer Erfahrung zu verbessern das System und die Software.

Wenn du “Ich stimme zu” klickst, erlaubst du uns, die Cookies zu benutzen die Geräte Bezeichnung, den Web oder ähnliche Technologien zu benutzen. Deine Settings, können in deinem Gerät bei deinem Browser geändert werden.

Für den bestimmten Zweck, berechtigten Interessen beruhen darauf, mehr als auf den Inhalt. Du kannst mehr darüber in unseren Privaten und Cookie Politik lesen.